{"data":{"norad_id":52140,"intl_designator":"2022-029BE","name":"STARLINK-3682","alt_names":[],"object_type":"PAYLOAD","status":"ACTIVE","operator":null,"country":"US","launch_date":"2022-03-19","launch_site_code":"AFETR","launch_vehicle":null,"mission":null,"orbit_class":"UNKNOWN","rcs_meters":null,"size_class":null,"mass_kg":null,"dimensions":null,"purposes":["comms"],"wikipedia_slug":null,"has_3d_model":false,"image_url":null,"decayed_at":null,"tle_current":{"epoch":"2026-09-20T00:02:26.149056Z","epoch_age_seconds":98830,"freshness":"FRESH","line1":"1 52140U 22029BE  26263.00169154  .00001462  00000+0  54385-4 0  9993","line2":"2 52140  53.1603 269.8936 0001058  75.9785 284.1336 15.34402694250361","mean_motion":15.34402694,"eccentricity":0.0001058,"inclination_deg":53.1603,"raan_deg":269.8936,"arg_perigee_deg":75.9785,"mean_anomaly_deg":284.1336,"bstar":5.4385e-5,"rev_number":25036,"period_min":93.847593309817,"perigee_km":461.97147303283,"apogee_km":463.41899313335,"semimajor_km":6840.8322330831,"source":"CELESTRAK","updated_at":"2026-09-20T09:00:39.993149Z"}}}